This is the latest recevied weather packets stored in our database for station/object N5PLO-10. If no packets are shown the sender has not sent any weather packets the latest 10 day(s).
| Time | Temp. | Humidity | Pressure | Rain* | Wind** | Luminosity | Snow |
|---|---|---|---|---|---|---|---|
| 1777682719 | 14.44° C | 99% | 1014.6 hPa | 0 mm | - | 3 W/m² | - |
| 1777682416 | 14.44° C | 99% | 1015.1 hPa | 0 mm | - | 4 W/m² | - |
| 1777682114 | 14.44° C | 99% | 1015.4 hPa | 0 mm | - | 8 W/m² | - |
| 1777681810 | 14.44° C | 99% | 1015.7 hPa | 0 mm | - | 7 W/m² | - |
| 1777681507 | 14.44° C | 99% | 1015.9 hPa | 0 mm | - | 7 W/m² | - |
| 1777681204 | 14.44° C | 99% | 1015.6 hPa | 0 mm | - | 11 W/m² | - |
| 1777680902 | 14.44° C | 99% | 1015.5 hPa | 1.78 mm | - | 13 W/m² | - |
| 1777680599 | 15° C | 99% | 1015.5 hPa | 1.78 mm | - | 7 W/m² | - |
| 1777680298 | 15° C | 99% | 1015.7 hPa | 0 mm | - | 7 W/m² | - |
| 1777679994 | 14.44° C | 99% | 1015.3 hPa | 0 mm | - | 9 W/m² | - |
| 1777679689 | 14.44° C | 99% | 1015.2 hPa | 0 mm | - | 11 W/m² | - |
| 1777679384 | 14.44° C | 99% | 1014.7 hPa | 0 mm | - | 11 W/m² | - |
| 1777679081 | 14.44° C | 99% | 1014.7 hPa | 0 mm | - | 9 W/m² | - |
| 1777678780 | 14.44° C | 99% | 1014.6 hPa | 0 mm | - | 8 W/m² | - |
| 1777678477 | 14.44° C | 99% | 1014.6 hPa | 0 mm | - | 8 W/m² | - |
| 1777678173 | 15° C | 99% | 1014.3 hPa | 0 mm | - | 12 W/m² | - |
| 1777677870 | 15° C | 99% | 1014 hPa | 0 mm | - | 24 W/m² | - |
| 1777677567 | 15° C | 99% | 1014.4 hPa | 1.27 mm | - | 34 W/m² | - |
| 1777677266 | 15° C | 99% | 1015.1 hPa | 1.27 mm | - | 23 W/m² | - |
| 1777676963 | 15° C | 99% | 1015 hPa | 0 mm | - | 19 W/m² | - |
| 1777676662 | 15° C | 99% | 1014.5 hPa | 0 mm | - | 12 W/m² | - |
| 1777676359 | 15° C | 99% | 1014.5 hPa | 0 mm | - | 12 W/m² | - |
| 1777676057 | 15° C | 99% | 1014.2 hPa | 0 mm | - | 8 W/m² | - |
| 1777675752 | 15° C | 99% | 1012.9 hPa | 0 mm | - | 16 W/m² | - |
| 1777675450 | 15° C | 99% | 1012.7 hPa | 0 mm | - | 24 W/m² | - |
* Rain latest hour (hover to see other rain measurements)
** Current wind speed in m/s (hover to see current wind gust speed)